Вернуться в каталог

CZ-3B DEB

LostGTO
NORAD 40815·DEBRIS·🇨🇳 China

Запущен Sep 4, 2010 с Xichang Satellite Launch Center

Loading…

TLE

УстаревшееSource: Space-Track

Эпоха: Jul 10, 2026, 17:24 UTC

1 40815U 10042Y   26191.72504013  .00000064  00000-0  17026-1 0  9993
2 40815  25.9070 128.2314 7323792 225.0574  45.0063  1.91039819  7233

Отслеживайте CZ-3B DEB в реальном времени с AllMySat

Download on the App Store